Granite Falls, MN

7:29 PM CDT on October 21, 2017 (GMT -0500)
Granite Falls

Weather History for KGDB - September, 2012

Change the Weather History Date:

Wednesday, September 5, 2012

  Actual Average (KMVE) Record (KMVE)
Temperature  
Mean Temperature 64 °F -  
Max Temperature 77 °F 78 °F 99 °F (1978)
Min Temperature 50 °F 51 °F 33 °F (1962)
Degree Days  
Heating Degree Days 1    
Growing Degree Days 14 (Base 50)    
Moisture  
Dew Point 49 °F    
Average Humidity 61    
Maximum Humidity 94    
Minimum Humidity 28    
Precipitation  
Precipitation 0.00 in - - ()
Sea Level Pressure  
Sea Level Pressure 29.89 in    
Wind  
Wind Speed 7 mph (WNW)    
Max Wind Speed 15 mph    
Max Gust Speed 23 mph    
Visibility 10 miles    
Events      
Averages and records for this station are not official NWS values.
T = Trace of Precipitation, MM = Missing Value Source: NWS Daily Summary

Daily Weather History Graph

Daily Weather History Graph

Search for Another Location

Airport or City:

Trip Planner

Search our weather history database for the weather conditions in past years. The results will help you decide how hot, cold, wet, or windy it might be!

Date:

Astronomy

Sep. 05, 2012 Rise Set
Actual Time 6:49 AM CDT 7:50 PM CDT
Civil Twilight 6:20 AM CDT 8:20 PM CDT
Nautical Twilight 5:44 AM CDT 8:56 PM CDT
Astronomical Twilight 5:06 AM CDT 9:33 PM CDT
Moon 10:05 PM CDT (9/5) 12:10 PM CDT (9/5)
Length of Visible Light 14h 00m
Length of Day
13h 00m
Waning Gibbous, 76% of the Moon is Illuminated
Sep 5
Waning Gibbous
Sep 8
Last Quarter
Sep 15
New
Sep 22
First Quarter
Sep 29
Full

Hourly Weather History & Observations

Time (CDT) Temp. Dew Point Humidity Pressure Visibility Wind Dir Wind Speed Gust Speed Precip Events Conditions
12:12 AM 66.4 °F 52.5 °F 61% 29.74 in 10.0 mi East 8.1 mph 16.1 mph N/A   Clear
12:32 AM 65.1 °F 52.5 °F 64% 29.75 in 10.0 mi East 6.9 mph - N/A   Clear
12:51 AM 64.9 °F 53.2 °F 66% 29.76 in 10.0 mi SE 8.1 mph - N/A   Clear
1:12 AM 63.0 °F 54.3 °F 73% 29.77 in 10.0 mi ESE 3.5 mph - N/A   Clear
1:52 AM 57.6 °F 54.7 °F 90% 29.78 in 10.0 mi South 5.8 mph - N/A   Clear
2:11 AM 57.2 °F 55.0 °F 92% 29.82 in 7.0 mi WNW 6.9 mph - N/A   Clear
2:32 AM 58.3 °F 54.9 °F 88% 29.84 in 10.0 mi NW 10.4 mph - N/A   Clear
2:52 AM 58.3 °F 54.0 °F 86% 29.84 in 10.0 mi WNW 3.5 mph - N/A   Clear
3:12 AM 57.7 °F 53.6 °F 86% 29.84 in 10.0 mi NW 8.1 mph - N/A   Clear
3:32 AM 58.6 °F 52.7 °F 81% 29.84 in 10.0 mi WNW 8.1 mph - N/A   Clear
3:52 AM 57.6 °F 52.3 °F 83% 29.85 in 10.0 mi WNW 4.6 mph - N/A   Clear
4:12 AM 56.8 °F 52.2 °F 84% 29.85 in 10.0 mi NW 3.5 mph - N/A   Clear
4:52 AM 54.3 °F 51.6 °F 91% 29.83 in 7.0 mi Calm Calm - N/A   Clear
5:12 AM 53.2 °F 51.6 °F 94% 29.85 in 10.0 mi West 6.9 mph - N/A   Clear
5:32 AM 54.1 °F 51.8 °F 92% 29.87 in 10.0 mi West 6.9 mph - N/A   Clear
5:52 AM 56.1 °F 52.2 °F 87% 29.89 in 10.0 mi WNW 5.8 mph - N/A   Clear
6:12 AM 57.2 °F 52.7 °F 85% 29.89 in 10.0 mi NW 8.1 mph - N/A   Clear
6:32 AM 58.5 °F 52.2 °F 80% 29.89 in 10.0 mi NNW 5.8 mph - N/A   Scattered Clouds
6:52 AM 58.1 °F 51.8 °F 80% 29.88 in 10.0 mi North 5.8 mph - N/A   Clear
7:11 AM 57.6 °F 51.3 °F 79% 29.87 in 10.0 mi NNE 5.8 mph - N/A   Scattered Clouds
7:32 AM 58.6 °F 52.0 °F 79% 29.87 in 10.0 mi Calm Calm - N/A   Scattered Clouds
7:52 AM 59.0 °F 53.8 °F 83% 29.88 in 10.0 mi West 5.8 mph - N/A   Scattered Clouds
8:12 AM 59.4 °F 54.0 °F 82% 29.89 in 7.0 mi WNW 5.8 mph - N/A   Scattered Clouds
8:32 AM 61.2 °F 54.5 °F 79% 29.89 in 10.0 mi West 4.6 mph - N/A   Scattered Clouds
8:52 AM 63.3 °F 54.5 °F 73% 29.90 in 10.0 mi WNW 5.8 mph - N/A   Clear
9:12 AM 64.6 °F 54.7 °F 70% 29.90 in 10.0 mi WNW 6.9 mph - N/A   Clear
9:32 AM 66.0 °F 54.7 °F 67% 29.91 in 10.0 mi WNW 9.2 mph - N/A   Clear
9:52 AM 66.7 °F 54.7 °F 65% 29.91 in 10.0 mi West 9.2 mph - N/A   Clear
10:12 AM 68.2 °F 53.1 °F 58% 29.91 in 10.0 mi NW 9.2 mph - N/A   Clear
10:31 AM 68.7 °F 52.9 °F 57% 29.92 in 10.0 mi WNW 10.4 mph - N/A   Clear
10:52 AM 69.8 °F 51.3 °F 52% 29.92 in 10.0 mi NW 11.5 mph - N/A   Clear
11:12 AM 70.5 °F 50.9 °F 50% 29.92 in 10.0 mi NW 10.4 mph 17.3 mph N/A   Clear
11:32 AM 71.2 °F 50.5 °F 48% 29.92 in 10.0 mi WNW 9.2 mph - N/A   Clear
11:52 AM 72.0 °F 49.8 °F 46% 29.92 in 10.0 mi WNW 12.7 mph - N/A   Clear
12:12 PM 73.4 °F 49.3 °F 42% 29.92 in 10.0 mi NW 15.0 mph - N/A   Clear
12:32 PM 73.4 °F 47.8 °F 40% 29.91 in 10.0 mi NW 10.4 mph - N/A   Clear
12:52 PM 73.8 °F 44.6 °F 35% 29.92 in 10.0 mi WNW 13.8 mph 21.9 mph N/A   Clear
1:12 PM 74.3 °F 42.6 °F 32% 29.91 in 10.0 mi WNW 15.0 mph 21.9 mph N/A   Clear
1:32 PM 75.0 °F 43.0 °F 32% 29.91 in 10.0 mi WNW 11.5 mph 21.9 mph N/A   Clear
1:52 PM 74.8 °F 42.8 °F 32% 29.91 in 10.0 mi NW 12.7 mph 20.7 mph N/A   Clear
2:12 PM 75.2 °F 42.1 °F 30% 29.91 in 10.0 mi West 10.4 mph 23.0 mph N/A   Clear
2:32 PM 75.4 °F 41.4 °F 29% 29.91 in 10.0 mi WNW 15.0 mph 23.0 mph N/A   Clear
2:52 PM 76.1 °F 41.5 °F 29% 29.91 in 10.0 mi WNW 12.7 mph 19.6 mph N/A   Clear
3:12 PM 75.7 °F 41.0 °F 29% 29.91 in 10.0 mi WNW 10.4 mph 19.6 mph N/A   Clear
3:32 PM 76.1 °F 41.4 °F 29% 29.91 in 10.0 mi WNW 13.8 mph - N/A   Clear
3:52 PM 76.1 °F 41.2 °F 29% 29.91 in 10.0 mi WNW 12.7 mph 16.1 mph N/A   Clear
4:12 PM 77.0 °F 41.5 °F 28% 29.91 in 10.0 mi WNW 13.8 mph 18.4 mph N/A   Clear
4:32 PM 76.8 °F 41.5 °F 28% 29.91 in 10.0 mi WNW 10.4 mph 17.3 mph N/A   Clear
4:52 PM 75.9 °F 40.8 °F 28% 29.91 in 10.0 mi WNW 8.1 mph 18.4 mph N/A   Clear
5:12 PM 76.1 °F 41.2 °F 29% 29.91 in 10.0 mi West 10.4 mph 17.3 mph N/A   Clear
5:31 PM 75.4 °F 40.1 °F 28% 29.90 in 10.0 mi West 8.1 mph - N/A   Clear
5:52 PM 75.2 °F 41.5 °F 30% 29.90 in 10.0 mi WNW 8.1 mph - N/A   Clear
6:12 PM 74.3 °F 42.4 °F 32% 29.91 in 10.0 mi NW 6.9 mph - N/A   Clear
6:31 PM 73.6 °F 44.4 °F 35% 29.91 in 10.0 mi NW 6.9 mph - N/A   Clear
6:52 PM 72.1 °F 45.3 °F 38% 29.91 in 10.0 mi NW 6.9 mph - N/A   Clear
7:12 PM 70.3 °F 45.0 °F 40% 29.92 in 10.0 mi WNW 6.9 mph - N/A   Clear
7:32 PM 68.2 °F 45.9 °F 45% 29.92 in 10.0 mi NW 6.9 mph - N/A   Clear
7:52 PM 66.0 °F 46.9 °F 50% 29.93 in 10.0 mi NW 5.8 mph - N/A   Clear
8:12 PM 63.5 °F 47.7 °F 56% 29.93 in 10.0 mi WNW 3.5 mph - N/A   Clear
8:32 PM 60.3 °F 48.9 °F 66% 29.93 in 10.0 mi WNW 3.5 mph - N/A   Clear
8:52 PM 58.6 °F 48.0 °F 68% 29.94 in 10.0 mi Calm Calm - N/A   Clear
9:12 PM 57.7 °F 48.7 °F 72% 29.94 in 10.0 mi West 3.5 mph - N/A   Clear
9:31 PM 56.1 °F 48.6 °F 76% 29.94 in 10.0 mi West 4.6 mph - N/A   Clear
9:52 PM 54.3 °F 48.9 °F 82% 29.94 in 10.0 mi West 3.5 mph - N/A   Clear
10:11 PM 54.0 °F 49.1 °F 84% 29.94 in 10.0 mi WSW 3.5 mph - N/A   Clear
10:32 PM 52.5 °F 48.2 °F 85% 29.94 in 10.0 mi WSW 4.6 mph - N/A   Clear
10:52 PM 53.6 °F 48.0 °F 81% 29.94 in 10.0 mi SW 3.5 mph - N/A   Clear
11:12 PM 51.3 °F 47.7 °F 87% 29.95 in 10.0 mi Calm Calm - N/A   Clear
11:32 PM 51.6 °F 47.7 °F 86% 29.95 in 10.0 mi Calm Calm - N/A   Clear
11:52 PM 50.2 °F 46.8 °F 88% 29.95 in 10.0 mi Calm Calm - N/A   Clear